12-12-2022, 00:00:05,    342,    0.7,   -3.4,   0.00,   0.00, 1005.8,    0.1, -999.0
12-12-2022, 00:00:15,    342,    0.5,   -3.4,   0.00,   0.00, 1005.8,    0.2, -999.0
12-12-2022, 00:00:25,    312,    0.4,   -3.5,   0.00,   0.00, 1005.7,    0.1, -999.0
12-12-2022, 00:00:35,    312,    0.0,   -3.4,   0.00,   0.00, 1005.7,    0.1, -999.0
12-12-2022, 00:00:45,    311,    0.0,   -3.4,   0.00,   0.00, 1005.7,    0.1, -999.0
12-12-2022, 00:00:55,    311,    0.0,   -3.4,   0.00,   0.00, 1005.7,    0.0, -999.0
12-12-2022, 00:01:05,    312,    0.0,   -3.6,   0.00,   0.00, 1005.7,    0.1, -999.0
12-12-2022, 00:01:15,    312,    0.6,   -3.4,   0.00,   0.00, 1005.8,    0.1, -999.0
12-12-2022, 00:01:25,    312,    0.0,   -3.4,   0.00,   0.00, 1005.6,    0.1, -999.0
12-12-2022, 00:01:35,    312,    0.0,   -3.5,   0.00,   0.00, 1005.7,    0.1, -999.0
12-12-2022, 00:01:45,    313,    0.0,   -3.4,   0.00,   0.00, 1005.7,    0.2, -999.0
12-12-2022, 00:01:55,    313,    0.0,   -3.4,   0.00,   0.00, 1005.7,    0.1, -999.0
12-12-2022, 00:02:05,    312,    0.0,   -3.4,   0.00,   0.00, 1005.7,    0.0, -999.0
12-12-2022, 00:02:15,    313,    0.0,   -3.4,   0.00,   0.00, 1005.6,    0.0, -999.0
12-12-2022, 00:02:25,    313,    0.0,   -3.4,   0.00,   0.00, 1005.6,    0.1, -999.0
12-12-2022, 00:02:35,    313,    0.0,   -3.4,   0.00,   0.00, 1005.6,    0.1, -999.0
12-12-2022, 00:02:45,    313,    0.1,   -3.4,   0.00,   0.00, 1005.7,    0.1, -999.0
12-12-2022, 00:02:55,    313,    0.0,   -3.5,   0.00,   0.00, 1005.7,    0.0, -999.0
12-12-2022, 00:03:05,    312,    0.0,   -3.4,   0.00,   0.00, 1005.7,    0.1, -999.0
12-12-2022, 00:03:15,    315,    0.0,   -3.4,   0.00,   0.00, 1005.6,    0.2, -999.0
12-12-2022, 00:03:25,    314,    0.5,   -3.4,   0.00,   0.00, 1005.7,    0.2, -999.0
12-12-2022, 00:03:35,    314,    0.2,   -3.4,   0.00,   0.00, 1005.7,    0.1, -999.0
12-12-2022, 00:03:45,    314,    0.5,   -3.3,   0.00,   0.00, 1005.7,    0.1, -999.0
12-12-2022, 00:03:55,    313,    0.0,   -3.4,   0.00,   0.00, 1005.7,    0.0, -999.0
12-12-2022, 00:04:05,    314,    0.0,   -3.5,   0.00,   0.00, 1005.6,    0.1, -999.0
12-12-2022, 00:04:15,    313,    0.0,   -3.5,   0.00,   0.00, 1005.7,    0.1, -999.0
12-12-2022, 00:04:25,    314,    0.0,   -3.5,   0.00,   0.00, 1005.7,    0.0, -999.0
12-12-2022, 00:04:35,    315,    0.2,   -3.4,   0.00,   0.00, 1005.7,    0.0, -999.0
12-12-2022, 00:04:45,    315,    0.2,   -3.3,   0.00,   0.00, 1005.7,    0.1, -999.0
12-12-2022, 00:04:55,    315,    0.3,   -3.3,   0.00,   0.00, 1005.8,    0.0, -999.0
12-12-2022, 00:05:05,    315,    0.0,   -3.2,   0.00,   0.00, 1005.6,    0.1, -999.0
12-12-2022, 00:05:15,    315,    0.0,   -3.3,   0.00,   0.00, 1005.6,    0.0, -999.0
12-12-2022, 00:05:25,    315,    0.2,   -3.4,   0.00,   0.00, 1005.7,    0.3, -999.0
12-12-2022, 00:05:35,    315,    0.1,   -3.4,   0.00,   0.00, 1005.7,    0.0, -999.0
12-12-2022, 00:05:45,    315,    0.4,   -3.4,   0.00,   0.00, 1005.7,    0.1, -999.0
12-12-2022, 00:05:55,    315,    0.0,   -3.5,   0.00,   0.00, 1005.7,    0.0, -999.0
12-12-2022, 00:06:05,    315,    0.1,   -3.4,   0.00,   0.00, 1005.7,    0.1, -999.0
12-12-2022, 00:06:14,    315,    0.2,   -3.4,   0.00,   0.00, 1005.7,    0.0, -999.0
12-12-2022, 00:06:25,    318,    0.4,   -3.4,   0.00,   0.00, 1005.7,    0.1, -999.0
12-12-2022, 00:06:35,    318,    1.0,   -3.4,   0.00,   0.00, 1005.8,    0.1, -999.0
12-12-2022, 00:06:45,    319,    0.9,   -3.4,   0.00,   0.00, 1005.8,    0.1, -999.0
12-12-2022, 00:06:54,    319,    0.3,   -3.4,   0.00,   0.00, 1005.7,    0.2, -999.0
12-12-2022, 00:07:05,    319,    0.1,   -3.4,   0.00,   0.00, 1005.7,    0.2, -999.0
12-12-2022, 00:07:15,    319,    0.3,   -3.4,   0.00,   0.00, 1005.7,    0.1, -999.0
12-12-2022, 00:07:24,    319,    0.5,   -3.4,   0.00,   0.00, 1005.7,    0.1, -999.0
12-12-2022, 00:07:34,    319,    0.1,   -3.5,   0.00,   0.00, 1005.6,    0.0, -999.0
12-12-2022, 00:07:45,    319,    0.0,   -3.3,   0.00,   0.00, 1005.6,    0.1, -999.0
12-12-2022, 00:07:55,    319,    0.0,   -3.4,   0.00,   0.00, 1005.6,    0.0, -999.0
12-12-2022, 00:08:04,    319,    0.0,   -3.4,   0.00,   0.00, 1005.6,    0.2, -999.0
12-12-2022, 00:08:15,    318,    0.1,   -3.4,   0.00,   0.00, 1005.6,    0.0, -999.0
12-12-2022, 00:08:25,    319,    0.7,   -3.3,   0.00,   0.00, 1005.7,    0.1, -999.0
12-12-2022, 00:08:34,    318,    1.2,   -3.3,   0.00,   0.00, 1005.7,    0.2, -999.0
12-12-2022, 00:08:44,    318,    1.0,   -3.4,   0.00,   0.00, 1005.7,    0.0, -999.0
12-12-2022, 00:08:55,    318,    0.7,   -3.4,   0.00,   0.00, 1005.7,    0.1, -999.0
12-12-2022, 00:09:05,    320,    0.5,   -3.4,   0.00,   0.00, 1005.7,    0.0, -999.0
12-12-2022, 00:09:14,    320,    0.6,   -3.4,   0.00,   0.00, 1005.7,    0.1, -999.0
12-12-2022, 00:09:24,    320,    0.3,   -3.4,   0.00,   0.00, 1005.6,    0.1, -999.0
12-12-2022, 00:09:35,    320,    0.0,   -3.4,   0.00,   0.00, 1005.6,    0.1, -999.0
12-12-2022, 00:09:44,    320,    0.2,   -3.5,   0.00,   0.00, 1005.6,    0.0, -999.0
12-12-2022, 00:09:54,    320,    0.4,   -3.4,   0.00,   0.00, 1005.7,    0.2, -999.0
12-12-2022, 00:10:04,    321,    0.7,   -3.4,   0.00,   0.00, 1005.7,    0.2, -999.0
12-12-2022, 00:10:15,    320,    0.0,   -3.6,   0.00,   0.00, 1005.5,    0.0, -999.0
12-12-2022, 00:10:24,    320,    0.2,   -3.4,   0.00,   0.00, 1005.6,    0.2, -999.0
12-12-2022, 00:10:34,    325,    0.6,   -3.4,   0.00,   0.00, 1005.6,    0.1, -999.0
12-12-2022, 00:10:44,    326,    0.3,   -3.4,   0.00,   0.00, 1005.6,    0.1, -999.0
12-12-2022, 00:10:54,    326,    1.4,   -3.3,   0.00,   0.00, 1005.7,    0.1, -999.0
12-12-2022, 00:11:04,    328,    0.3,   -3.4,   0.00,   0.00, 1005.6,    0.1, -999.0
12-12-2022, 00:11:14,    330,    0.7,   -3.4,   0.00,   0.00, 1005.7,    0.2, -999.0
12-12-2022, 00:11:24,    329,    0.1,   -3.4,   0.00,   0.00, 1005.6,    0.1, -999.0
12-12-2022, 00:11:34,    329,    0.3,   -3.4,   0.00,   0.00, 1005.7,    0.1, -999.0
12-12-2022, 00:11:44,    331,    0.5,   -3.3,   0.00,   0.00, 1005.7,    0.1, -999.0
12-12-2022, 00:11:54,    331,    0.1,   -3.4,   0.00,   0.00, 1005.6,    0.1, -999.0
12-12-2022, 00:12:04,    331,    0.0,   -3.4,   0.00,   0.00, 1005.5,    0.0, -999.0
12-12-2022, 00:12:14,    331,    0.1,   -3.4,   0.00,   0.00, 1005.6,    0.1, -999.0
12-12-2022, 00:12:24,    331,    0.2,   -3.3,   0.00,   0.00, 1005.6,    0.1, -999.0
12-12-2022, 00:12:34,    331,    0.0,   -3.3,   0.00,   0.00, 1005.5,    0.1, -999.0
12-12-2022, 00:12:44,    331,    0.0,   -3.3,   0.00,   0.00, 1005.5,    0.0, -999.0
12-12-2022, 00:12:54,    330,    0.0,   -3.4,   0.00,   0.00, 1005.5,    0.1, -999.0
12-12-2022, 00:13:04,    330,    0.0,   -3.4,   0.00,   0.00, 1005.5,    0.1, -999.0
12-12-2022, 00:13:14,    330,    0.0,   -3.4,   0.00,   0.00, 1005.5,    0.0, -999.0
12-12-2022, 00:13:24,    330,    0.0,   -3.4,   0.00,   0.00, 1005.5,    0.1, -999.0
12-12-2022, 00:13:34,    330,    0.0,   -3.4,   0.00,   0.00, 1005.5,    0.0, -999.0
12-12-2022, 00:13:44,    335,    0.3,   -3.3,   0.00,   0.00, 1005.6,    0.2, -999.0
12-12-2022, 00:13:54,    334,    0.2,   -3.2,   0.00,   0.00, 1005.6,    0.0, -999.0
12-12-2022, 00:14:04,    335,    0.0,   -3.4,   0.00,   0.00, 1005.5,    0.0, -999.0
12-12-2022, 00:14:14,    334,    0.0,   -3.4,   0.00,   0.00, 1005.6,    0.1, -999.0
12-12-2022, 00:14:24,    332,    0.5,   -3.3,   0.00,   0.00, 1005.6,    0.0, -999.0
12-12-2022, 00:14:34,    331,    0.5,   -3.4,   0.00,   0.00, 1005.6,    0.0, -999.0
12-12-2022, 00:14:44,    329,    1.0,   -3.3,   0.00,   0.00, 1005.7,    0.1, -999.0
12-12-2022, 00:14:54,    333,    0.5,   -3.4,   0.00,   0.00, 1005.7,    0.2, -999.0
12-12-2022, 00:15:04,    333,    0.1,   -3.4,   0.00,   0.00, 1005.6,    0.1, -999.0
12-12-2022, 00:15:14,    340,    1.1,   -3.3,   0.00,   0.00, 1005.7,    0.1, -999.0
12-12-2022, 00:15:24,      0,    0.9,   -3.3,   0.00,   0.00, 1005.7,    0.2, -999.0
12-12-2022, 00:15:34,    336,    1.2,   -3.3,   0.00,   0.00, 1005.7,    0.1, -999.0
12-12-2022, 00:15:44,    342,    2.9,   -3.3,   0.00,   0.00, 1005.7,    0.2, -999.0
12-12-2022, 00:15:54,    340,    3.0,   -3.4,   0.00,   0.00, 1005.7,    0.2, -999.0
12-12-2022, 00:16:04,    326,    3.1,   -3.4,   0.00,   0.00, 1005.7,    0.2, -999.0
12-12-2022, 00:16:14,    325,    1.5,   -3.4,   0.00,   0.00, 1005.7,    0.1, -999.0
12-12-2022, 00:16:24,    327,    1.3,   -3.4,   0.00,   0.00, 1005.7,    0.1, -999.0
12-12-2022, 00:16:34,    340,    0.9,   -3.4,   0.00,   0.00, 1005.7,    0.1, -999.0
12-12-2022, 00:16:44,    357,    1.4,   -3.4,   0.00,   0.00, 1005.7,    0.0, -999.0
12-12-2022, 00:16:54,    358,    1.7,   -3.3,   0.00,   0.00, 1005.7,    0.1, -999.0
12-12-2022, 00:17:04,    342,    1.0,   -3.4,   0.00,   0.00, 1005.7,    0.1, -999.0
12-12-2022, 00:17:14,    342,    0.7,   -3.3,   0.00,   0.00, 1005.7,    0.1, -999.0
12-12-2022, 00:17:24,    340,    0.7,   -3.4,   0.00,   0.00, 1005.7,    0.1, -999.0
12-12-2022, 00:17:34,    342,    0.4,   -3.4,   0.00,   0.00, 1005.6,    0.1, -999.0
12-12-2022, 00:17:43,     13,    0.7,   -3.4,   0.00,   0.00, 1005.6,    0.1, -999.0
12-12-2022, 00:17:54,      0,    0.3,   -3.3,   0.00,   0.00, 1005.6,    0.2, -999.0
12-12-2022, 00:18:04,      0,    0.0,   -3.4,   0.00,   0.00, 1005.5,    0.0, -999.0
12-12-2022, 00:18:14,      0,    0.0,   -3.4,   0.00,   0.00, 1005.5,    0.0, -999.0
12-12-2022, 00:18:23,      0,    0.1,   -3.4,   0.00,   0.00, 1005.6,    0.0, -999.0
12-12-2022, 00:18:34,      0,    0.4,   -3.2,   0.00,   0.00, 1005.7,    0.1, -999.0
12-12-2022, 00:18:44,    345,    0.4,   -3.3,   0.00,   0.00, 1005.6,    0.1, -999.0
12-12-2022, 00:18:53,    344,    0.3,   -3.3,   0.00,   0.00, 1005.6,    0.1, -999.0
12-12-2022, 00:19:03,    348,    0.3,   -3.3,   0.00,   0.00, 1005.7,    0.1, -999.0
12-12-2022, 00:19:14,    339,    0.9,   -3.3,   0.00,   0.00, 1005.7,    0.0, -999.0
12-12-2022, 00:19:23,    339,    1.0,   -3.3,   0.00,   0.00, 1005.6,    0.3, -999.0
12-12-2022, 00:19:33,    357,    1.0,   -3.3,   0.00,   0.00, 1005.7,    0.0, -999.0
12-12-2022, 00:19:44,    343,    2.0,   -3.3,   0.00,   0.00, 1005.7,    0.2, -999.0
12-12-2022, 00:19:54,    338,    0.9,   -3.3,   0.00,   0.00, 1005.6,    0.2, -999.0
12-12-2022, 00:20:03,    338,    0.8,   -3.4,   0.00,   0.00, 1005.7,    0.1, -999.0
12-12-2022, 00:20:13,    338,    0.0,   -3.4,   0.00,   0.00, 1005.5,    0.3, -999.0
12-12-2022, 00:20:24,    338,    0.3,   -3.4,   0.00,   0.00, 1005.6,    0.2, -999.0
12-12-2022, 00:20:33,    329,    2.0,   -3.3,   0.00,   0.00, 1005.7,    0.1, -999.0
12-12-2022, 00:20:43,    336,    1.6,   -3.4,   0.00,   0.00, 1005.7,    0.0, -999.0
12-12-2022, 00:20:53,    348,    1.7,   -3.4,   0.00,   0.00, 1005.7,    0.2, -999.0
12-12-2022, 00:21:03,    348,    0.9,   -3.3,   0.00,   0.00, 1005.7,    0.1, -999.0
12-12-2022, 00:21:13,    350,    0.8,   -3.3,   0.00,   0.00, 1005.7,    0.1, -999.0
12-12-2022, 00:21:23,    350,    0.0,   -3.4,   0.00,   0.00, 1005.5,    0.1, -999.0
12-12-2022, 00:21:33,    350,    0.0,   -3.5,   0.00,   0.00, 1005.6,    0.0, -999.0
12-12-2022, 00:21:43,    350,    0.4,   -3.4,   0.00,   0.00, 1005.6,    0.1, -999.0
12-12-2022, 00:21:53,    349,    0.8,   -3.3,   0.00,   0.00, 1005.7,    0.1, -999.0
12-12-2022, 00:22:03,    349,    0.2,   -3.3,   0.00,   0.00, 1005.6,    0.1, -999.0
12-12-2022, 00:22:13,    356,    1.5,   -3.3,   0.00,   0.00, 1005.7,    0.1, -999.0
12-12-2022, 00:22:23,    356,    0.6,   -3.3,   0.00,   0.00, 1005.7,    0.1, -999.0
12-12-2022, 00:22:33,    342,    0.4,   -3.2,   0.00,   0.00, 1005.7,    0.1, -999.0
12-12-2022, 00:22:43,    340,    0.7,   -3.3,   0.00,   0.00, 1005.7,    0.1, -999.0
12-12-2022, 00:22:53,    340,    0.4,   -3.3,   0.00,   0.00, 1005.6,    0.1, -999.0
12-12-2022, 00:23:03,    356,    0.9,   -3.3,   0.00,   0.00, 1005.6,    0.2, -999.0
12-12-2022, 00:23:13,    336,    2.7,   -3.4,   0.00,   0.00, 1005.7,    0.2, -999.0
12-12-2022, 00:23:23,    343,    3.3,   -3.3,   0.00,   0.00, 1005.7,    0.1, -999.0
12-12-2022, 00:23:33,    338,    3.3,   -3.4,   0.00,   0.00, 1005.7,    0.0, -999.0
12-12-2022, 00:23:43,    321,    2.1,   -3.4,   0.00,   0.00, 1005.7,    0.0, -999.0
12-12-2022, 00:23:53,    321,    1.1,   -3.4,   0.00,   0.00, 1005.7,    0.1, -999.0
12-12-2022, 00:24:03,    353,    1.1,   -3.4,   0.00,   0.00, 1005.7,    0.1, -999.0
12-12-2022, 00:24:13,    352,    0.6,   -3.4,   0.00,   0.00, 1005.7,    0.1, -999.0
12-12-2022, 00:24:23,    343,    1.2,   -3.4,   0.00,   0.00, 1005.7,    0.1, -999.0
12-12-2022, 00:24:33,    330,    2.1,   -3.4,   0.00,   0.00, 1005.7,    0.1, -999.0
12-12-2022, 00:24:43,    339,    2.6,   -3.3,   0.00,   0.00, 1005.7,    0.2, -999.0
12-12-2022, 00:24:53,    339,    1.0,   -3.3,   0.00,   0.00, 1005.7,    0.2, -999.0
12-12-2022, 00:25:03,    317,    1.4,   -3.3,   0.00,   0.00, 1005.7,    0.1, -999.0
12-12-2022, 00:25:13,    317,    0.5,   -3.4,   0.00,   0.00, 1005.7,    0.0, -999.0
12-12-2022, 00:25:23,    319,    0.4,   -3.4,   0.00,   0.00, 1005.7,    0.1, -999.0
12-12-2022, 00:25:33,    327,    0.7,   -3.4,   0.00,   0.00, 1005.7,    0.1, -999.0
12-12-2022, 00:25:43,    335,    2.4,   -3.3,   0.00,   0.00, 1005.8,    0.1, -999.0
12-12-2022, 00:25:53,    340,    3.2,   -3.3,   0.00,   0.00, 1005.7,    0.2, -999.0
12-12-2022, 00:26:03,    338,    2.6,   -3.4,   0.00,   0.00, 1005.7,    0.0, -999.0
12-12-2022, 00:26:13,    340,    2.7,   -3.3,   0.00,   0.00, 1005.8,    0.1, -999.0
12-12-2022, 00:26:23,    345,    2.6,   -3.4,   0.00,   0.00, 1005.8,    0.1, -999.0
12-12-2022, 00:26:33,    334,    2.7,   -3.4,   0.00,   0.00, 1005.8,    0.1, -999.0
12-12-2022, 00:26:43,    320,    2.0,   -3.5,   0.00,   0.00, 1005.8,    0.0, -999.0
12-12-2022, 00:26:53,    338,    2.1,   -3.5,   0.00,   0.00, 1005.7,    0.2, -999.0
12-12-2022, 00:27:03,    319,    2.7,   -3.4,   0.00,   0.00, 1005.8,    0.1, -999.0
12-12-2022, 00:27:13,    313,    2.0,   -3.4,   0.00,   0.00, 1005.8,    0.1, -999.0
12-12-2022, 00:27:23,    312,    1.0,   -3.4,   0.00,   0.00, 1005.7,    0.2, -999.0
12-12-2022, 00:27:33,    320,    2.4,   -3.4,   0.00,   0.00, 1005.7,    0.1, -999.0
12-12-2022, 00:27:43,    315,    0.6,   -3.3,   0.00,   0.00, 1005.7,    0.0, -999.0
12-12-2022, 00:27:52,    317,    0.3,   -3.5,   0.00,   0.00, 1005.7,    0.0, -999.0
12-12-2022, 00:28:03,    316,    0.0,   -3.4,   0.00,   0.00, 1005.6,    0.0, -999.0
12-12-2022, 00:28:13,    316,    0.0,   -3.4,   0.00,   0.00, 1005.6,    0.1, -999.0
12-12-2022, 00:28:23,    317,    0.1,   -3.4,   0.00,   0.00, 1005.7,    0.0, -999.0
12-12-2022, 00:28:32,    316,    0.5,   -3.3,   0.00,   0.00, 1005.7,    0.1, -999.0
12-12-2022, 00:28:43,    316,    0.4,   -3.3,   0.00,   0.00, 1005.7,    0.1, -999.0
12-12-2022, 00:28:53,    316,    0.0,   -3.4,   0.00,   0.00, 1005.6,    0.1, -999.0
12-12-2022, 00:29:02,    316,    0.3,   -3.3,   0.00,   0.00, 1005.7,    0.2, -999.0
12-12-2022, 00:29:12,    340,    0.8,   -3.3,   0.00,   0.00, 1005.8,    0.1, -999.0
12-12-2022, 00:29:23,    354,    0.7,   -3.3,   0.00,   0.00, 1005.8,    0.1, -999.0
12-12-2022, 00:29:33,    344,    2.4,   -3.3,   0.00,   0.00, 1005.8,    0.1, -999.0
12-12-2022, 00:29:42,    325,    3.3,   -3.3,   0.00,   0.00, 1005.8,    0.2, -999.0
12-12-2022, 00:29:52,    327,    2.2,   -3.4,   0.00,   0.00, 1005.8,    0.1, -999.0
12-12-2022, 00:30:03,    326,    0.8,   -3.5,   0.00,   0.00, 1005.8,    0.1, -999.0
12-12-2022, 00:30:12,    326,    0.3,   -3.6,   0.00,   0.00, 1005.8,    0.2, -999.0
12-12-2022, 00:30:22,    346,    0.8,   -3.4,   0.00,   0.00, 1005.8,    0.1, -999.0
12-12-2022, 00:30:33,    326,    3.0,   -3.4,   0.00,   0.00, 1005.8,    0.2, -999.0
12-12-2022, 00:30:43,    344,    1.3,   -3.4,   0.00,   0.00, 1005.8,    0.3, -999.0
12-12-2022, 00:30:52,    336,    0.5,   -3.4,   0.00,   0.00, 1005.8,    0.2, -999.0
12-12-2022, 00:31:02,    346,    2.3,   -3.4,   0.00,   0.00, 1005.8,    0.1, -999.0
12-12-2022, 00:31:13,    346,    1.4,   -3.4,   0.00,   0.00, 1005.8,    0.1, -999.0
12-12-2022, 00:31:22,    345,    1.0,   -3.5,   0.00,   0.00, 1005.8,    0.0, -999.0
12-12-2022, 00:31:32,    337,    2.0,   -3.5,   0.00,   0.00, 1005.8,    0.1, -999.0
12-12-2022, 00:31:42,    337,    0.6,   -3.5,   0.00,   0.00, 1005.8,    0.1, -999.0
12-12-2022, 00:31:52,    326,    0.3,   -3.5,   0.00,   0.00, 1005.8,    0.0, -999.0
12-12-2022, 00:32:02,    326,    0.3,   -3.5,   0.00,   0.00, 1005.8,    0.0, -999.0
12-12-2022, 00:32:12,    326,    0.2,   -3.4,   0.00,   0.00, 1005.8,    0.1, -999.0
12-12-2022, 00:32:22,    327,    0.1,   -3.3,   0.00,   0.00, 1005.8,    0.0, -999.0
12-12-2022, 00:32:32,    331,    0.5,   -3.5,   0.00,   0.00, 1005.8,    0.0, -999.0
12-12-2022, 00:32:42,    337,    1.2,   -3.4,   0.00,   0.00, 1005.9,    0.0, -999.0
12-12-2022, 00:32:52,    337,    0.8,   -3.4,   0.00,   0.00, 1005.9,    0.1, -999.0
12-12-2022, 00:33:02,    311,    1.1,   -3.4,   0.00,   0.00, 1005.9,    0.0, -999.0
12-12-2022, 00:33:12,    343,    2.2,   -3.4,   0.00,   0.00, 1005.9,    0.1, -999.0
12-12-2022, 00:33:22,    342,    1.7,   -3.3,   0.00,   0.00, 1005.9,    0.2, -999.0
12-12-2022, 00:33:32,    342,    1.7,   -3.4,   0.00,   0.00, 1005.9,    0.0, -999.0
12-12-2022, 00:33:42,    342,    1.2,   -3.4,   0.00,   0.00, 1005.9,    0.1, -999.0
12-12-2022, 00:33:52,    348,    0.8,   -3.4,   0.00,   0.00, 1005.9,    0.3, -999.0
12-12-2022, 00:34:02,    356,    1.6,   -3.4,   0.00,   0.00, 1005.9,    0.4, -999.0
12-12-2022, 00:34:12,    357,    1.8,   -3.4,   0.00,   0.00, 1005.9,    0.0, -999.0
12-12-2022, 00:34:22,    355,    0.2,   -3.5,   0.00,   0.00, 1005.8,    0.1, -999.0
12-12-2022, 00:34:32,    317,    0.5,   -3.4,   0.00,   0.00, 1005.9,    0.2, -999.0
12-12-2022, 00:34:42,    326,    0.4,   -3.3,   0.00,   0.00, 1005.8,    0.1, -999.0
12-12-2022, 00:34:52,    326,    0.4,   -3.5,   0.00,   0.00, 1005.8,    0.2, -999.0
12-12-2022, 00:35:02,    329,    0.4,   -3.4,   0.00,   0.00, 1005.8,    0.1, -999.0
12-12-2022, 00:35:12,    323,    0.4,   -3.5,   0.00,   0.00, 1005.8,    0.0, -999.0
12-12-2022, 00:35:22,    323,    0.7,   -3.4,   0.00,   0.00, 1005.8,    0.2, -999.0
12-12-2022, 00:35:32,    355,    0.7,   -3.4,   0.00,   0.00, 1005.8,    0.0, -999.0
12-12-2022, 00:35:42,    353,    0.6,   -3.4,   0.00,   0.00, 1005.8,    0.2, -999.0
12-12-2022, 00:35:52,    353,    0.6,   -3.4,   0.00,   0.00, 1005.8,    0.2, -999.0
12-12-2022, 00:36:02,    344,    0.6,   -3.4,   0.00,   0.00, 1005.9,    0.1, -999.0
12-12-2022, 00:36:12,    308,    0.2,   -3.4,   0.00,   0.00, 1005.8,    0.0, -999.0
12-12-2022, 00:36:22,    341,    0.6,   -3.5,   0.00,   0.00, 1005.8,    0.0, -999.0
12-12-2022, 00:36:32,    344,    0.1,   -3.4,   0.00,   0.00, 1005.8,    0.0, -999.0
12-12-2022, 00:36:42,    344,    0.0,   -3.4,   0.00,   0.00, 1005.7,    0.1, -999.0
12-12-2022, 00:36:52,    349,    0.2,   -3.4,   0.00,   0.00, 1005.8,    0.1, -999.0
12-12-2022, 00:37:02,    347,    0.4,   -3.4,   0.00,   0.00, 1005.8,    0.2, -999.0
12-12-2022, 00:37:12,    348,    0.2,   -3.3,   0.00,   0.00, 1005.8,    0.2, -999.0
12-12-2022, 00:37:22,    336,    1.4,   -3.4,   0.00,   0.00, 1005.9,    0.0, -999.0
12-12-2022, 00:37:32,    336,    0.4,   -3.5,   0.00,   0.00, 1005.8,    0.2, -999.0
12-12-2022, 00:37:42,    338,    3.8,   -3.4,   0.00,   0.00, 1005.8,    0.1, -999.0
12-12-2022, 00:37:52,    345,    4.3,   -3.5,   0.00,   0.00, 1005.8,    0.1, -999.0
12-12-2022, 00:38:02,    330,    3.1,   -3.6,   0.00,   0.00, 1005.8,    0.1, -999.0
12-12-2022, 00:38:12,      0,    2.5,   -3.7,   0.00,   0.00, 1005.8,    0.2, -999.0
12-12-2022, 00:38:22,    346,    1.5,   -3.7,   0.00,   0.00, 1005.8,    0.1, -999.0
12-12-2022, 00:38:32,    336,    2.0,   -3.7,   0.00,   0.00, 1005.9,    0.2, -999.0
12-12-2022, 00:38:41,    331,    2.2,   -3.6,   0.00,   0.00, 1005.9,    0.1, -999.0
12-12-2022, 00:38:52,    321,    1.8,   -3.5,   0.00,   0.00, 1005.8,    0.1, -999.0
12-12-2022, 00:39:02,    349,    1.1,   -3.7,   0.00,   0.00, 1005.8,    0.0, -999.0
12-12-2022, 00:39:11,    342,    0.9,   -3.6,   0.00,   0.00, 1005.8,    0.1, -999.0
12-12-2022, 00:39:22,    341,    0.0,   -3.7,   0.00,   0.00, 1005.7,    0.1, -999.0
12-12-2022, 00:39:32,    324,    1.4,   -3.5,   0.00,   0.00, 1005.8,    0.1, -999.0
12-12-2022, 00:39:42,    323,    0.6,   -3.5,   0.00,   0.00, 1005.8,    0.1, -999.0
12-12-2022, 00:39:51,    328,    0.0,   -3.6,   0.00,   0.00, 1005.8,    0.2, -999.0
12-12-2022, 00:40:02,    332,    0.2,   -3.6,   0.00,   0.00, 1005.7,    0.0, -999.0
12-12-2022, 00:40:12,    340,    0.6,   -3.6,   0.00,   0.00, 1005.8,    0.0, -999.0
12-12-2022, 00:40:21,    338,    1.8,   -3.5,   0.00,   0.00, 1005.8,    0.0, -999.0
12-12-2022, 00:40:31,    353,    1.1,   -3.6,   0.00,   0.00, 1005.8,    0.2, -999.0
12-12-2022, 00:40:42,    347,    0.3,   -3.5,   0.00,   0.00, 1005.8,    0.1, -999.0
12-12-2022, 00:40:52,    358,    1.5,   -3.6,   0.00,   0.00, 1005.8,    0.1, -999.0
12-12-2022, 00:41:01,    326,    0.5,   -3.5,   0.00,   0.00, 1005.8,    0.1, -999.0
12-12-2022, 00:41:11,    326,    0.1,   -3.6,   0.00,   0.00, 1005.8,    0.0, -999.0
12-12-2022, 00:41:22,    326,    0.0,   -3.6,   0.00,   0.00, 1005.7,    0.1, -999.0
12-12-2022, 00:41:31,    326,    0.7,   -3.6,   0.00,   0.00, 1005.8,    0.1, -999.0
12-12-2022, 00:41:41,    327,    0.0,   -3.6,   0.00,   0.00, 1005.7,    0.0, -999.0
12-12-2022, 00:41:52,    328,    1.7,   -3.5,   0.00,   0.00, 1005.8,    0.2, -999.0
12-12-2022, 00:42:01,    336,    1.8,   -3.5,   0.00,   0.00, 1005.8,    0.1, -999.0
12-12-2022, 00:42:11,    311,    1.0,   -3.6,   0.00,   0.00, 1005.8,    0.1, -999.0
12-12-2022, 00:42:21,    311,    0.3,   -3.6,   0.00,   0.00, 1005.8,    0.2, -999.0
12-12-2022, 00:42:32,    312,    0.3,   -3.6,   0.00,   0.00, 1005.8,    0.1, -999.0
12-12-2022, 00:42:41,    322,    0.6,   -3.5,   0.00,   0.00, 1005.8,    0.0, -999.0
12-12-2022, 00:42:51,    314,    0.9,   -3.6,   0.00,   0.00, 1005.8,    0.1, -999.0
12-12-2022, 00:43:01,    305,    0.8,   -3.6,   0.00,   0.00, 1005.8,    0.1, -999.0
12-12-2022, 00:43:11,    316,    1.2,   -3.6,   0.00,   0.00, 1005.8,    0.2, -999.0
12-12-2022, 00:43:21,    318,    0.8,   -3.6,   0.00,   0.00, 1005.7,    0.1, -999.0
12-12-2022, 00:43:31,    306,    2.5,   -3.7,   0.00,   0.00, 1005.8,    0.0, -999.0
12-12-2022, 00:43:41,    313,    1.2,   -3.6,   0.00,   0.00, 1005.8,    0.0, -999.0
12-12-2022, 00:43:51,    338,    1.2,   -3.6,   0.00,   0.00, 1005.8,    0.2, -999.0
12-12-2022, 00:44:01,    332,    1.5,   -3.6,   0.00,   0.00, 1005.8,    0.1, -999.0
12-12-2022, 00:44:11,    331,    0.9,   -3.6,   0.00,   0.00, 1005.8,    0.2, -999.0
12-12-2022, 00:44:21,    308,    2.8,   -3.6,   0.00,   0.00, 1005.8,    0.1, -999.0
12-12-2022, 00:44:31,    312,    3.1,   -3.6,   0.00,   0.00, 1005.8,    0.1, -999.0
12-12-2022, 00:44:41,    314,    3.1,   -3.7,   0.00,   0.00, 1005.8,    0.1, -999.0
12-12-2022, 00:44:51,    313,    1.9,   -3.7,   0.00,   0.00, 1005.8,    0.0, -999.0
12-12-2022, 00:45:01,    323,    2.7,   -3.6,   0.00,   0.00, 1005.8,    0.1, -999.0
12-12-2022, 00:45:11,    326,    1.0,   -3.6,   0.00,   0.00, 1005.8,    0.2, -999.0
12-12-2022, 00:45:21,    341,    1.3,   -3.6,   0.00,   0.00, 1005.8,    0.0, -999.0
12-12-2022, 00:45:31,    340,    0.2,   -3.6,   0.00,   0.00, 1005.7,    0.2, -999.0
12-12-2022, 00:45:41,    325,    0.9,   -3.8,   0.00,   0.00, 1005.7,    0.1, -999.0
12-12-2022, 00:45:51,    325,    0.7,   -3.6,   0.00,   0.00, 1005.8,    0.1, -999.0
12-12-2022, 00:46:01,    352,    1.6,   -3.6,   0.00,   0.00, 1005.8,    0.0, -999.0
12-12-2022, 00:46:11,    348,    1.3,   -3.6,   0.00,   0.00, 1005.8,    0.1, -999.0
12-12-2022, 00:46:21,    348,    1.3,   -3.6,   0.00,   0.00, 1005.8,    0.1, -999.0
12-12-2022, 00:46:31,    317,    2.9,   -3.6,   0.00,   0.00, 1005.8,    0.1, -999.0
12-12-2022, 00:46:41,    338,    3.6,   -3.6,   0.00,   0.00, 1005.8,    0.1, -999.0
12-12-2022, 00:46:52,    354,    2.9,   -3.6,   0.00,   0.00, 1005.8,    0.1, -999.0